Tracking 30258 objects as of 19-Feb-2025
HD Live streaming from Space Station
objects crossing your sky now

ATLAS 5 CENTAUR DEB

Track ATLAS 5 CENTAUR DEB now!


NORAD ID: 46638
Int'l Code: 2014-055CN
Perigee: 6,702.5 km
Apogee: 35,170.4 km
Inclination: 20.6 °
Period: 748.5 minutes
Semi major axis: 27307 km
RCS: Unknown
Launch date: September 17, 2014
Source: United States (US)
Launch site: AIR FORCE EASTERN TEST RANGE (AFETR)

Note: This is SATELLITE DEBRIS
Your satellite tracking list
Your tracking list is empty




NASA's NSSDC Master Catalog

Two Line Element Set (TLE):
1 46638U 14055CN  25049.96406262 -.00000123  00000-0  00000-0 0  9994
2 46638  20.5781 148.5913 5212484 161.8943 227.3713  1.92389545 30713
Source of the keplerian elements: AFSPC